Погода в Тихорецке

Хотите узнать прогноз погоды в Тихорецке? Тогда Вам сюда: Погода в Тихорецке

Поиск расширенной информации на нашем сайте:

Полезная информация:

Новости сайта



02.01.2020
Опубликован Долгосрочный прогноз погоды по городам России и ближнего зарубежья на январь 2020 года.
Карты: Прогноз на январь и февраль 2020 года, Сравнение прогнозируемой аномалии приземной температуры воздуха на январь 2020 года по разным моделям.




Погода в Тихорецке - сегодня

Время (UTC), дата Ветер
(°,м/с) 
Видим.   Явления Облачность Т
(°С)
Тd
(°С)
f(%) Тe
(°С)
Pmin
(гПа)
dP
(гПа)
Po
(мм)
O2
(г/м3)
Тmin Tmax R s Состояние
почвы
15 18.10.20 270 (З) 3{10}  10 км    10/0 средняя, верхняя 
[Ac lent|Ci fib]
+24.8 +5.4 29 +25  1010.1  0.6  751  277    +29.6       
18 18.10.20 тихо ()   10 км  в посл. час ливневой дождь  10/0 кучево-дожд., средняя 
[Cb cap|Ac As]
+16 +13.9 87 +23  1016.5  2.1  755  285           
21 18.10.20 тихо ()   10 км    10/0 средняя 
[Ac As]
+15.7 +14.2 91 +23  1015.8  -0.7  755  285           
00 19.10.20 тихо ()   10 км    10/0 верхняя 
[Cc]
+15.5 +14 91 +22  1016.5  0.6  755  285           
03 19.10.20 тихо ()   10 км  слаб. ливневой дождь  10/0 кучево-дожд. 
[Cb cap]
+14.9 +13.7 93 +21  1017.4  0.9  756  286  +14.9       
06 19.10.20 080 (В) 10 км  {ливн. осадки}  10/8 600 м кучево-дожд., средняя 
[Cb cap|Ac As]
+15.6 +13.8 89 +23  1017.6  0.3  756  285  +14.8         
09 19.10.20 030 (СВ) 10 км    10/8 600 м кучево-дожд., средняя 
[Cb cap|Ac As]
+17.3 +13.6 79 +25  1017.1  -0.5  756  284           
12 19.10.20 010 (С) 4000 м  ливневой дождь  10/10 600 м кучево-дожд. 
[Cb cap]
+15.1 +14 93 +23  1016  -1.1  755  285           
15 19.10.20 тихо ()   10 км  слаб. ливневой дождь  10/10 600 м кучево-дожд. 
[Cb cap]
+13.8 +12.8 94 +19  1017.4  1.3  756  287    +17.4  28     
18 19.10.20 340 (С) 10 км  слаб. ливневой дождь  10/10 600 м кучево-дожд. 
[Cb cap]
+11.5 +10.6 94 +15  1020.4  2.9  758  291           
21 19.10.20 тихо ()   10 км  {ливн. осадки}  10/10 600 м кучево-дожд. 
[Cb cap]
+10.9 +10 94 +12  1022.8  2.4  760  293           
00 20.10.20 тихо ()   4000 м  дымка{ливн. осадки}  10/10 600 м 
[Sc]
+11.2 +10.3 94 +12  1024.1  1.2  761  293           
03 20.10.20 тихо ()   10 км    10/10 1000 м 
[Sc]
+10.5 +9.5 94 +11  1024.9  0.8  762  294  +10.5    11     
06 20.10.20 тихо ()   10 км    6/0 средняя, верхняя 
[Ac cast|Ci fib]
+11.6 +8 79 +12  1025.9  762  293  +9.3         
09 20.10.20 290 (З) 10 км    8/0 верхняя 
[Cu hum|Ci fib]
+15.1 +2.9 44 +16  1025.7  0.1  762  291           
12 20.10.20 290 (З) 10 км    6/3 1000 м верхняя 
[Cu hum|Ci fib]
+14.4 +3.8 49 +16  1025.2  -0.5  762  291           
15 20.10.20 тихо ()   10 км    6/0 верхняя 
[Ci fib]
+9.7 +5.2 74 +10  1025.7  0.4  762  296    +15.5       
18 20.10.20 тихо ()   10 км    8/0 верхняя 
[Ci fib]
+7 +5.2 88 +7  1027  1.1  763  299           
21 20.10.20 тихо ()   10 км    3/0 верхняя 
[Ci fib]
+4.9 +3.7 92 +5  1027.8  0.7  764  302           
00 21.10.20 тихо ()   10 км    6/3 1000 м верхняя 
[Sc|Ci fib]
+5.5 +4.4 93 +6  1028.5  0.7  764  301           
03 21.10.20 тихо ()   10 км    6/0 верхняя 
[Ci fib]
+3.6 +2.7 94 +4  1029.7  1.2  765  304  +3.6         
06 21.10.20 тихо ()   10 км    ясно 
+8.2 +5.5 83 +8  1030.5  0.9  766  299  +2.8         
09 21.10.20 тихо ()   10 км    ясно 
+13.7 +0.5 40 +14  1030.2  -0.2  766  294           
12 21.10.20 тихо ()   10 км    ясно 
+14.4 -0.8 35 +14  1028.6  -1.6  764  293           
15 21.10.20 тихо ()   10 км    ясно 
+8.9 +3.2 67 +9  1027.9  -0.8  764  298    +14.4       
Время (UTC), дата Ветер
(°,м/с) 
Видим.   Явления Облачность Т
(°С)
Тd
(°С)
f(%) Тe
(°С)
Pmin
(гПа)
dP
(гПа)
Po
(мм)
O2
(г/м3)
Тmin Tmax R s Состояние
почвы

Для получения пояснительной информации подведите курсор к названию столбца.

ПОГОДА в Тихорецке - архив

Всё, что Вы хотите узнать о погоде в Тихорецке - удобно и подробно!

Выберите нужную дату (начиная с 1 января 2019* года) и нажмите кнопку "Найти".
Будут отображены архивные сводки погоды по пункту Тихорецк, начиная с указанной даты.


Отображать данные в формате CSV (для использования в таблицах Excel)


Внимание! Наш архив погоды предназначен исключительно для личного некоммерческого использования в познавательных целях. Если Вам необходимы официальные справки о состоянии погоды (для производственных, юридических, коммерческих и т.п. целей), обращайтесь в органы Росгидромета.

*Примечание: данная дата относится к архиву по метеостанциям СССР (Россия, СНГ, Балтия).
Архив по метеостанциям Зарубежной Европы и Азии (кроме Китая) хранится 10 дней, по другим регионам земного шара (Китай, Африка, Америка, Австралия, Океания) - 1 день.

Тихорецк - район местоположения метеостанции


Название, широта, долгота, высота метеостанции:
Тихорецк 45.9°ш. 40.1°д. 78 м над ур. моря [Российская Федерация]

Дополнительная информация

В oтличие oт бoльшинства пoгoдных сайтoв мы публикуем пoдрoбную метеoинфoрмацию в детальнoм прoфессиoнальнoм фoрмате.

Характеристики температуры и влажнoсти вoздуха измеряются на высoте 2 м в тени вдали oт зданий и деревьев.
Скoрoсть ветра измеряется на высoте 10 м (на урoвне рoста челoвека скoрoсть ветра ниже в 1.5-2 раза). Если метеoстанция нахoдится в гoрoде или в лесу, тo скoрoсть ветра занижена на 2-4 м/с пo сравнению с oткрытым местoм. Скoрoсть ветра над акватoриями крупных рек и oзёр, а также на вершинах хoлмoв на 2-5 м/с выше, чем в oбычных услoвиях.
Атмoсфернoе давление в разных тoчках местнoсти мoжет значительнo oтличаться oт давления на метеoстанции, в зависимoсти oт услoвий рельефа (при пoдъёме на 10 м давление пoнижается примернo на 1 мм рт.ст.).